TimeCST,TemperatureF,Dew PointF,Humidity,Sea Level PressureIn,VisibilityMPH,Wind Direction,Wind SpeedMPH,Gust SpeedMPH,PrecipitationIn,Events,Conditions,WindDirDegrees,DateUTC
12:53 AM,-11.9,-18.9,71,30.09,10.0,South,3.5,-,N/A,,Clear,190,2014-02-01 06:53:00
1:53 AM,-5.1,-11.9,72,30.07,10.0,SSW,3.5,-,N/A,,Clear,200,2014-02-01 07:53:00
2:53 AM,-6.0,-9.9,83,30.06,10.0,Calm,Calm,-,N/A,,Overcast,0,2014-02-01 08:53:00
3:53 AM,-0.0,-7.1,72,30.05,10.0,South,5.8,-,N/A,,Overcast,180,2014-02-01 09:53:00
4:53 AM,1.9,-5.1,72,30.04,10.0,South,4.6,-,N/A,,Overcast,190,2014-02-01 10:53:00
5:53 AM,1.9,-5.1,72,30.03,10.0,South,5.8,-,N/A,,Overcast,170,2014-02-01 11:53:00
6:53 AM,1.9,-5.1,72,30.01,10.0,SSE,6.9,-,N/A,,Overcast,160,2014-02-01 12:53:00
7:53 AM,3.9,-4.0,70,30.02,10.0,WSW,3.5,-,N/A,,Overcast,250,2014-02-01 13:53:00
8:53 AM,3.9,-4.0,70,30.02,10.0,South,5.8,-,N/A,,Overcast,180,2014-02-01 14:53:00
9:53 AM,6.1,-2.9,67,30.01,6.0,South,6.9,-,0.00,Snow,Light Snow,180,2014-02-01 15:53:00
10:53 AM,8.1,-0.0,70,30.02,10.0,Variable,4.6,-,0.00,,Overcast,0,2014-02-01 16:53:00
11:06 AM,8.1,-0.0,70,29.92,10.0,SSW,3.5,-,N/A,,Overcast,210,2014-02-01 17:06:00
11:24 AM,9.0,1.0,70,29.91,10.0,South,5.8,-,N/A,,Overcast,190,2014-02-01 17:24:00
11:53 AM,10.0,1.9,70,30.00,10.0,South,5.8,-,N/A,,Overcast,190,2014-02-01 17:53:00
12:48 PM,12.2,3.2,67,29.89,4.0,SW,6.9,-,0.00,Snow,Light Snow,230,2014-02-01 18:48:00
12:53 PM,12.0,3.0,67,29.99,4.0,Variable,4.6,-,0.00,Snow,Light Snow,0,2014-02-01 18:53:00
1:53 PM,12.9,5.0,71,30.00,4.0,Variable,5.8,-,0.00,Snow,Light Snow,0,2014-02-01 19:53:00
2:53 PM,15.1,5.0,64,30.01,10.0,West,5.8,-,0.00,,Overcast,270,2014-02-01 20:53:00
3:53 PM,15.1,5.0,64,30.02,10.0,Variable,3.5,-,N/A,,Overcast,0,2014-02-01 21:53:00
4:53 PM,12.9,3.9,67,30.04,10.0,West,3.5,-,N/A,,Clear,260,2014-02-01 22:53:00
5:27 PM,10.0,3.0,73,29.96,10.0,Calm,Calm,-,N/A,,Mostly Cloudy,0,2014-02-01 23:27:00
5:53 PM,10.0,3.0,73,30.06,10.0,Calm,Calm,-,N/A,,Overcast,0,2014-02-01 23:53:00
6:53 PM,12.9,3.9,67,30.09,10.0,Variable,3.5,-,N/A,,Overcast,0,2014-02-02 00:53:00
7:53 PM,12.9,3.0,65,30.10,10.0,Variable,3.5,-,N/A,,Overcast,0,2014-02-02 01:53:00
8:53 PM,10.9,1.9,67,30.12,10.0,Variable,4.6,-,N/A,,Overcast,0,2014-02-02 02:53:00
9:11 PM,10.0,1.0,67,30.03,10.0,Calm,Calm,-,N/A,,Scattered Clouds,0,2014-02-02 03:11:00
9:53 PM,8.1,-0.0,70,30.15,10.0,Variable,3.5,-,N/A,,Clear,0,2014-02-02 03:53:00
10:53 PM,5.0,-2.9,70,30.17,10.0,Calm,Calm,-,N/A,,Clear,0,2014-02-02 04:53:00
11:53 PM,-0.0,-6.0,76,30.20,10.0,Calm,Calm,-,N/A,,Clear,0,2014-02-02 05:53:00